Theta_e
311 312 312 313 313 312 311 312 312 312 312 312 313 312 313 312 309 309 310 307 307 311 313 313 313 313 313 313 313 312 309 308 310 310 311 311 311 312 312 312 312 312 313 313 311 309 309 309 309 311 314 317 320 321 322 323 324 325 325 324 324 325 325 326 327 327 327 327 328 330 331 331 330 329 330 330 331 331 332 331 331 330 330 330 329 329
310 313 314 313 312 311 310 310 310 310 311 311 311 311 312 312 311 310 310 308 306 310 312 312 311 312 313 313 313 312 311 310 311 311 312 313 313 313 314 314 314 314 314 312 310 309 308 307 307 307 308 312 316 318 320 321 322 323 324 324 324 323 324 324 325 327 327 327 327 329 330 331 331 331 330 329 329 330 331 331 331 330 330 330 330 330
312 313 313 311 309 309 308 307 309 310 310 311 311 311 311 311 311 309 310 309 306 309 312 311 311 312 313 313 313 313 312 312 312 312 313 313 314 314 313 314 314 314 314 312 311 310 309 307 307 306 306 308 310 313 316 318 320 322 323 323 323 323 323 323 324 325 326 326 326 327 328 329 330 331 330 329 329 329 329 330 330 330 330 329 329 329
314 313 311 308 307 308 308 307 309 311 311 312 313 310 311 313 312 310 311 309 306 308 311 312 313 314 315 314 314 313 312 312 311 310 311 311 312 313 314 315 313 313 315 313 311 310 309 307 306 306 306 306 307 310 313 314 318 320 321 322 322 323 323 322 323 323 324 325 325 325 325 326 327 328 328 328 328 327 327 327 328 328 328 329 328 327
313 310 306 306 308 309 309 308 310 311 311 313 315 313 313 314 313 312 311 309 308 308 310 313 312 312 316 315 315 314 309 309 309 308 309 310 310 311 313 313 311 311 312 312 311 310 310 308 306 305 306 306 306 308 309 310 313 317 318 320 321 322 322 322 322 322 323 324 324 325 325 325 326 327 326 326 326 326 325 325 326 326 328 329 328 327
312 306 303 307 309 311 310 309 311 312 311 313 314 314 314 313 313 313 312 311 312 311 311 312 309 309 314 314 314 313 310 309 310 310 310 311 312 310 310 311 311 310 310 310 310 311 311 309 307 306 304 305 305 306 307 308 309 312 315 317 320 321 321 321 321 322 322 323 324 324 325 325 325 326 326 326 325 325 325 325 324 325 327 328 328 327
308 303 305 309 309 313 313 310 314 315 311 312 313 314 314 314 315 315 314 313 312 310 310 310 310 309 312 314 314 312 311 311 312 312 312 312 312 310 309 309 309 309 308 308 308 308 309 308 308 307 305 304 305 305 306 307 308 309 312 315 318 319 319 320 320 321 321 322 322 323 323 324 325 325 325 325 325 325 325 325 325 325 325 325 325 325
306 305 308 312 311 313 312 311 314 314 311 313 315 313 313 314 317 318 316 314 312 311 310 311 313 310 309 313 314 310 311 313 312 312 313 313 311 310 309 308 308 307 306 307 307 306 306 307 307 306 306 305 305 305 305 306 307 308 311 314 316 317 318 319 319 320 320 321 321 322 322 323 324 324 325 325 324 325 324 324 324 324 324 324 324 324
309 310 310 312 311 311 313 315 315 313 312 315 312 311 313 315 317 318 316 313 311 311 311 313 314 311 309 313 313 310 311 313 314 313 313 313 312 312 311 310 309 307 306 306 306 306 307 307 306 305 305 305 304 304 305 306 307 308 310 312 314 316 318 318 318 319 321 321 321 321 322 323 323 323 324 325 324 323 323 323 323 323 323 323 323 324
310 310 309 311 311 312 314 313 313 315 314 312 308 310 313 313 313 314 314 311 310 310 312 313 312 310 310 313 313 310 311 313 314 314 313 313 313 314 313 311 309 308 309 309 307 308 309 307 307 306 306 305 303 303 305 307 308 309 310 312 314 316 318 318 318 320 321 321 321 321 321 323 323 323 324 323 322 321 322 322 322 321 321 320 320 322
309 307 309 312 312 311 309 307 308 314 313 310 310 311 311 311 311 312 311 309 310 312 311 309 308 309 309 313 314 312 311 312 314 313 312 312 312 313 312 311 309 308 310 311 309 309 309 307 307 307 307 306 304 305 307 309 310 311 312 313 315 316 317 317 318 320 321 321 321 321 322 323 323 324 323 321 321 322 322 322 321 320 320 320 320 321
309 308 310 311 309 309 310 308 306 307 308 310 313 312 312 312 311 311 309 309 312 313 309 305 306 309 309 311 313 312 310 309 310 311 312 313 312 313 313 311 309 307 309 311 311 310 310 310 309 309 309 307 307 308 309 311 312 313 314 314 315 316 316 317 318 319 320 320 321 321 321 322 323 324 322 321 322 323 323 322 321 321 321 321 320 319
312 311 310 310 308 310 314 312 307 306 308 311 312 312 312 313 312 313 312 311 313 311 307 304 306 309 310 311 311 311 311 309 308 310 312 313 312 313 316 314 311 310 312 313 313 312 311 312 313 312 311 309 309 311 311 312 313 314 314 315 316 316 316 317 318 320 320 320 321 322 321 322 322 322 322 322 323 323 323 323 322 321 320 320 319 318
313 314 312 311 310 309 313 312 309 309 309 311 313 312 312 313 313 315 313 311 312 310 306 304 307 310 310 311 312 312 311 310 308 308 310 310 310 312 313 312 313 314 315 316 317 316 314 313 314 313 312 311 311 311 312 312 313 314 314 315 316 316 316 318 319 320 320 320 321 321 321 321 320 321 322 323 323 323 323 322 321 321 320 319 318 317
314 314 312 314 312 310 313 313 313 314 311 312 315 313 312 313 313 314 313 312 313 310 306 305 308 311 310 310 312 311 309 308 307 307 307 307 308 308 308 309 314 316 315 319 321 319 316 313 312 311 311 311 312 312 312 313 313 314 314 315 316 316 316 318 319 320 320 321 321 320 319 319 319 320 323 323 323 322 322 321 321 320 319 318 317 316
313 312 312 312 310 310 313 313 313 314 312 311 312 311 312 314 313 310 309 310 310 310 309 307 309 312 311 311 312 311 308 307 307 306 307 308 307 307 309 313 317 316 316 321 324 322 317 312 309 309 310 310 311 312 313 313 314 314 315 315 316 316 317 318 319 320 320 320 320 318 318 318 318 320 322 322 321 321 321 320 319 319 318 317 316 315
311 311 312 312 309 309 312 312 312 315 313 310 310 310 310 313 315 310 306 305 306 309 311 310 311 311 310 311 313 313 311 309 309 308 308 310 309 309 314 320 320 320 321 323 323 321 316 312 309 308 309 310 310 312 313 313 314 315 315 316 316 317 317 318 319 319 320 320 319 318 318 319 319 319 320 320 320 320 319 319 318 317 316 316 315 314
313 312 312 314 313 310 309 311 312 314 313 310 311 312 309 311 313 311 309 308 307 310 311 309 310 310 308 310 314 313 311 311 310 309 309 311 311 313 318 323 322 322 322 321 320 318 314 311 310 309 308 310 311 312 312 313 314 314 315 315 316 316 317 317 318 318 318 319 319 318 318 319 319 318 318 319 318 318 317 317 316 315 314 314 314 313
317 314 312 312 313 312 310 313 311 311 311 311 312 312 312 312 312 309 310 312 310 310 311 309 307 308 308 310 314 312 311 313 311 311 311 311 312 315 319 321 320 319 320 319 319 318 314 311 310 309 308 308 310 311 312 312 313 313 314 315 315 316 316 316 316 317 317 317 317 317 317 317 317 317 317 317 317 316 315 315 314 314 313 313 313 313
316 315 313 311 312 312 313 314 312 311 310 309 309 309 311 313 311 310 310 311 311 310 311 310 307 308 310 311 312 311 312 314 312 312 313 311 312 313 315 318 319 319 320 317 314 315 314 310 308 308 308 308 309 310 311 312 312 313 313 314 314 314 315 315 315 316 316 316 316 316 316 316 315 315 315 315 315 315 314 314 314 313 313 312 312 312
313 314 314 312 311 312 313 313 314 314 311 309 308 309 311 310 309 310 309 308 310 310 310 310 308 308 312 311 311 311 311 313 313 313 313 313 312 311 312 317 320 320 319 315 312 313 311 309 307 306 307 308 309 310 310 311 312 312 313 313 313 314 314 314 314 314 314 314 314 314 314 314 314 314 314 313 313 313 313 313 312 312 312 312 311 311
313 312 314 313 312 313 314 312 310 313 314 312 309 310 312 311 310 312 311 308 308 308 308 309 308 310 313 312 311 311 311 310 310 311 312 312 311 310 312 315 317 319 317 313 313 313 311 310 308 306 308 308 308 308 309 311 311 311 312 312 312 313 312 313 313 313 313 313 313 313 312 313 312 312 312 312 312 312 312 312 312 312 312 311 310 309
315 315 315 314 313 313 312 309 305 308 314 313 310 311 313 312 312 313 313 311 307 304 305 306 308 311 313 310 308 308 307 305 305 307 310 311 310 310 311 312 313 316 316 315 316 316 311 309 307 307 308 308 308 309 309 309 310 310 310 311 311 311 311 312 312 312 312 312 312 312 311 311 311 311 311 311 311 311 311 312 311 311 311 310 309 308
314 316 315 312 312 312 310 310 308 309 312 312 311 313 312 312 315 313 312 312 309 306 307 308 309 312 314 311 308 307 305 304 305 306 309 311 311 310 311 312 313 314 316 317 320 318 310 306 306 307 309 308 308 309 309 309 309 309 310 310 310 311 311 311 311 311 311 311 311 311 311 311 310 310 311 311 311 311 311 311 311 310 310 309 308 308
312 315 316 313 313 313 312 312 312 312 311 311 313 313 312 313 314 311 310 310 310 310 311 310 310 311 312 311 312 311 308 309 310 308 308 311 312 311 311 312 313 315 317 317 318 319 315 312 311 309 308 308 308 307 307 307 308 309 310 310 310 310 310 310 310 310 310 310 310 310 310 310 310 310 310 310 310 310 310 310 309 309 308 308 308 307
313 317 315 314 315 316 316 315 315 315 313 312 314 313 312 312 312 311 310 310 310 311 310 310 311 310 309 310 312 312 311 312 311 310 309 309 310 312 313 314 314 316 318 317 317 319 318 315 312 308 307 308 308 308 309 309 309 310 310 311 310 310 310 310 310 310 310 309 309 309 310 310 310 310 310 310 310 309 309 309 308 308 307 307 307 307
316 318 314 313 315 314 315 315 316 316 315 315 316 315 312 311 312 313 313 311 312 312 310 311 312 311 310 311 312 312 313 313 312 311 311 309 309 312 314 314 313 314 315 314 315 316 316 316 313 308 307 308 308 309 310 310 311 311 311 311 311 310 310 310 310 310 310 310 309 309 310 310 310 309 309 309 308 308 308 307 307 307 306 306 306 306
317 315 313 314 315 314 314 315 317 317 316 315 316 315 313 312 311 313 314 313 314 313 311 312 313 313 312 311 313 315 316 315 313 311 311 310 309 311 312 311 312 312 312 313 313 314 316 318 316 309 306 306 308 309 309 310 311 311 311 311 311 310 310 309 309 309 310 310 310 310 309 309 309 308 308 308 307 307 307 306 306 306 306 306 306 306
315 312 314 315 314 314 314 316 318 317 315 316 317 316 314 312 311 313 314 314 315 313 312 313 314 314 312 310 311 315 315 314 312 310 310 309 310 310 310 311 312 313 313 313 313 313 314 315 315 310 305 304 306 307 308 309 309 309 310 311 310 310 310 309 309 309 310 310 310 309 309 308 308 307 307 307 306 306 306 306 306 306 305 305 305 305
313 313 315 314 313 315 315 315 317 316 314 315 318 317 314 312 312 312 313 314 314 314 314 314 315 315 314 311 310 312 313 311 309 310 309 310 311 310 310 311 312 312 312 313 312 312 313 315 312 306 303 303 303 304 305 306 307 307 309 309 310 310 310 309 308 309 309 310 309 308 308 307 307 307 306 306 306 305 305 305 305 305 305 305 305 304
312 315 315 312 312 313 313 313 313 313 313 315 316 315 313 312 312 312 312 313 314 314 314 314 315 315 313 312 311 311 312 309 309 311 310 309 311 310 310 311 312 312 313 313 311 310 312 315 312 305 303 303 302 302 303 303 304 306 307 308 309 310 309 308 307 308 308 308 308 307 307 306 306 306 305 305 305 305 305 305 305 305 305 304 304 304
311 313 314 313 312 312 311 311 312 313 313 314 313 312 312 312 312 312 313 313 314 314 314 314 314 313 313 313 311 310 311 311 311 312 311 310 310 310 310 312 313 313 313 312 311 311 312 316 314 308 305 303 301 301 302 302 304 306 307 308 308 309 308 307 306 307 307 307 306 306 306 305 305 305 304 304 304 304 304 304 304 303 303 303 303 303
311 312 313 312 312 313 312 311 312 313 312 312 312 312 313 312 312 312 313 313 313 313 313 313 313 312 313 314 311 310 310 311 312 312 312 313 313 311 310 312 313 313 311 309 310 312 314 313 310 305 303 302 301 301 301 303 304 306 307 307 307 307 306 305 306 306 306 305 305 305 304 304 304 303 303 303 303 303 302 302 302 302 302 302 302 302
312 313 312 312 313 314 312 310 312 312 311 312 312 313 314 314 312 313 313 312 312 312 312 313 312 313 314 313 311 310 310 310 312 312 312 314 314 313 311 311 312 312 311 308 307 310 310 307 304 301 301 301 301 301 301 302 304 304 305 305 305 305 305 305 305 304 304 303 303 303 303 302 302 302 302 302 302 302 301 301 301 301 301 301 301 301
312 311 310 311 312 311 308 310 313 312 312 313 313 312 312 312 312 313 313 312 311 311 311 312 312 312 313 313 311 310 310 310 310 311 311 312 313 314 313 312 312 311 309 308 308 308 306 303 301 300 300 301 302 302 303 303 303 304 304 303 304 304 303 303 302 301 301 301 300 301 301 300 301 301 301 301 301 301 301 301 301 301 301 301 301 300
312 311 310 309 310 309 307 310 313 313 313 313 313 311 310 310 311 312 313 312 311 311 311 311 311 310 312 313 311 310 312 312 310 310 311 311 312 313 314 314 313 311 309 308 307 306 303 300 300 300 300 302 302 303 303 303 303 303 303 303 302 302 300 300 299 298 298 299 299 299 299 299 299 300 300 300 300 300 300 300 300 300 300 300 299 299
311 310 310 309 309 309 309 310 311 313 313 312 312 311 310 310 311 311 313 313 311 310 310 310 311 310 311 312 310 310 312 312 310 310 309 310 312 312 311 312 310 309 307 303 301 301 300 299 300 300 300 300 300 301 302 302 302 302 301 300 299 299 298 298 297 297 297 297 297 297 298 298 298 299 299 300 300 299 299 299 299 299 299 299 299 299
313 311 311 311 310 308 309 309 310 312 313 312 312 312 311 310 311 311 312 312 312 311 310 310 310 310 310 312 310 309 311 310 310 311 310 312 313 311 310 308 303 301 301 299 298 298 297 298 299 298 299 298 298 299 299 299 300 300 298 297 297 297 296 296 295 295 295 296 296 296 297 297 297 298 298 298 299 299 299 299 299 299 298 299 299 299
312 312 311 311 310 308 309 310 310 311 312 312 312 312 311 311 313 312 311 313 312 311 311 310 310 310 311 312 310 310 311 310 310 311 313 315 314 310 309 306 298 295 296 296 297 297 295 296 297 297 297 297 296 297 298 298 299 298 296 296 295 295 295 293 293 294 294 295 295 295 296 296 296 297 297 298 298 298 298 298 298 298 298 298 298 298
309 309 309 309 309 309 309 310 310 310 312 313 313 311 309 311 312 312 312 313 312 312 312 310 310 311 311 312 311 310 310 311 311 312 310 308 305 301 301 300 297 295 294 294 295 295 295 296 296 295 295 294 294 295 297 297 298 297 295 294 294 293 292 291 292 292 293 294 294 294 295 295 295 296 296 297 298 298 298 298 297 297 297 297 297 297
309 308 308 309 310 310 309 310 309 310 314 316 312 308 308 311 312 312 313 312 313 314 313 311 310 311 311 311 309 308 309 313 313 306 300 300 300 296 294 294 293 293 293 292 293 294 294 294 293 291 291 292 293 294 295 296 296 294 293 292 292 290 289 290 291 292 293 293 294 294 295 295 295 296 296 296 297 297 297 297 296 297 297 296 297 297
311 310 309 309 310 310 309 309 309 310 315 316 308 305 309 312 312 312 314 316 319 318 314 311 310 310 311 310 308 309 312 310 305 299 297 298 297 295 293 293 293 292 292 292 293 293 292 291 290 289 289 290 291 292 293 294 294 291 290 290 288 287 287 289 290 291 292 293 293 294 294 294 294 295 295 295 296 296 296 296 296 296 296 296 296 296
311 312 311 310 311 311 310 309 311 312 313 311 307 305 309 311 312 314 316 318 321 322 318 312 309 309 310 308 308 311 310 304 299 297 296 294 293 292 293 293 292 292 292 292 291 291 290 289 288 287 287 288 289 290 291 292 291 288 287 286 285 285 287 288 289 291 291 292 292 293 293 293 294 294 294 294 294 294 295 295 295 295 294 294 294 294
311 311 313 312 311 311 311 310 312 313 310 308 310 311 309 308 311 313 314 314 317 317 315 312 308 307 308 308 308 308 305 300 296 295 294 293 292 291 290 290 290 290 290 290 289 289 289 288 287 286 285 285 286 287 288 289 288 286 284 283 284 286 287 288 289 290 291 291 292 292 292 292 292 292 292 292 292 293 293 293 293 293 293 293 293 292
311 312 314 313 310 312 313 312 313 314 310 307 308 309 308 307 306 304 308 313 316 310 306 307 309 307 306 306 307 304 301 298 295 294 293 291 290 289 288 288 288 288 287 287 287 287 287 287 286 285 284 283 283 284 285 285 285 283 282 282 284 286 287 288 289 290 291 291 291 291 292 292 292 292 292 291 291 291 291 291 291 291 291 291 291 291
314 315 315 314 312 312 313 315 314 312 308 303 299 297 298 300 300 299 302 308 309 303 299 302 306 305 303 304 305 302 298 296 293 292 291 289 288 287 287 287 286 285 285 285 285 285 285 285 285 284 283 282 282 281 282 282 282 281 280 282 284 285 286 287 288 289 289 290 290 290 291 291 291 291 291 291 290 290 290 290 290 289 289 289 290 290
316 314 314 315 314 312 313 316 313 307 302 300 297 295 295 294 294 295 298 299 298 295 294 297 299 300 300 302 302 299 295 293 291 290 289 287 286 286 286 285 284 283 282 282 282 283 283 283 283 283 282 281 280 280 280 279 279 279 280 281 283 284 285 286 286 287 287 287 288 288 288 289 289 289 289 289 290 290 290 290 289 287 287 287 288 288
315 312 312 313 313 313 314 312 305 299 296 294 295 296 296 294 292 291 291 291 290 289 290 292 294 296 298 298 297 294 292 291 290 288 287 286 285 284 284 284 283 281 280 280 280 281 281 281 281 281 281 280 279 279 278 277 277 278 279 280 281 282 283 284 284 285 285 285 285 285 286 286 287 287 288 289 289 290 289 288 287 286 285 286 286 286
311 311 312 312 311 311 312 308 302 302 302 297 293 293 293 292 291 289 288 288 288 288 288 288 289 291 293 293 292 291 290 289 288 286 285 284 283 283 283 282 281 280 280 279 279 279 280 280 280 280 279 278 277 277 277 276 275 277 278 278 279 280 281 281 281 282 282 283 283 283 283 284 285 286 287 286 287 287 287 286 285 285 285 286 286 285
310 312 311 311 310 310 313 312 307 309 312 305 295 293 291 290 290 289 288 288 287 286 286 286 286 286 287 288 289 289 288 286 285 284 283 282 281 281 281 281 280 279 278 278 278 278 278 279 279 279 277 276 276 276 276 275 274 274 275 276 276 277 277 277 277 277 278 279 280 280 281 281 282 282 281 280 280 281 282 284 285 284 284 285 285 285
312 313 312 312 312 312 314 312 308 310 312 304 294 291 290 289 289 289 287 287 286 285 285 285 285 284 283 283 284 285 285 284 283 282 280 279 279 279 279 279 279 278 277 276 276 277 277 278 278 277 275 275 275 274 274 273 272 273 274 275 275 276 276 276 276 275 276 276 277 277 277 277 277 277 277 277 276 276 278 280 282 283 284 285 284 284
Wind_Speed
1 4 6 7 7 7 7 4 1 3 4 6 4 2 2 4 3 1 2 3 2 4 7 8 8 11 12 11 10 4 3 5 8 8 8 7 7 6 7 8 8 10 9 7 10 15 18 21 23 25 26 27 28 28 27 26 25 25 23 22 23 22 20 21 23 25 26 25 25 26 30 32 28 24 26 26 24 24 26 29 27 23 26 30 29 28
2 7 7 4 3 5 5 3 4 4 2 3 4 3 2 3 1 2 1 2 2 3 3 1 6 13 14 12 10 6 6 10 11 10 11 10 8 7 7 9 9 8 6 5 9 12 15 19 21 22 24 25 26 28 30 30 30 28 25 24 22 20 20 22 23 24 27 29 26 23 26 29 27 25 27 27 26 25 25 25 25 23 25 28 28 29
4 7 3 3 4 6 5 4 4 4 4 3 3 4 3 2 2 2 1 2 1 3 1 2 5 11 13 12 11 10 10 11 10 10 11 9 8 8 8 8 8 7 6 6 8 9 12 16 18 20 23 25 27 27 29 31 30 28 27 26 23 19 19 21 22 23 24 25 25 22 21 21 21 21 22 23 22 23 26 26 23 22 23 24 25 27
5 3 1 5 7 8 5 2 5 4 3 3 3 4 4 3 3 2 3 3 1 1 1 1 4 9 9 9 11 10 8 7 7 9 9 7 9 8 6 5 6 8 8 7 8 9 10 12 15 19 23 25 27 26 27 30 30 29 29 29 26 23 20 18 22 25 23 21 23 22 21 20 20 21 21 22 21 21 24 27 26 23 23 24 25 26
3 1 2 4 7 10 7 4 6 6 4 2 3 5 3 4 4 1 4 5 1 1 1 2 5 8 6 8 10 5 2 5 5 6 9 9 9 8 6 6 7 8 7 6 8 8 8 9 12 17 22 25 26 28 29 31 32 32 31 31 28 25 21 17 20 24 23 23 25 25 24 22 21 23 23 23 25 24 24 26 27 26 26 26 27 27
1 2 2 4 4 7 8 7 8 8 5 3 5 5 2 6 6 4 6 6 2 3 1 1 5 5 1 5 9 2 0 6 4 4 10 9 7 7 7 9 8 8 8 8 9 7 7 8 9 13 19 23 25 28 30 30 31 32 31 30 28 25 21 17 18 20 22 27 29 28 27 26 24 24 25 26 27 27 27 28 28 27 28 29 28 28
1 1 1 5 5 5 5 6 6 6 6 4 3 4 3 5 7 8 8 5 2 2 1 1 5 4 1 3 3 1 3 7 4 6 11 8 6 6 7 7 6 6 7 7 8 8 8 9 10 12 16 21 24 26 28 28 28 28 28 28 27 26 21 16 17 19 24 29 30 30 30 29 27 25 25 27 27 26 26 27 26 26 29 31 29 29
3 3 1 3 5 5 5 5 4 6 6 2 1 3 7 8 8 9 8 4 1 1 1 1 2 4 5 3 2 1 4 7 6 9 11 8 6 5 6 5 5 6 5 5 6 7 8 9 10 11 12 17 20 22 24 25 26 26 26 26 25 24 19 15 18 20 26 29 27 29 29 27 26 24 21 21 22 22 21 20 22 24 27 29 29 30
2 5 5 6 5 5 5 2 4 8 6 0 1 2 5 5 6 6 6 3 1 1 4 3 1 4 6 2 2 1 4 8 8 10 10 7 4 4 4 3 4 4 4 5 6 6 7 7 8 9 9 13 17 18 20 21 23 23 23 23 23 22 17 15 20 23 26 27 23 24 25 23 24 23 19 17 15 16 16 16 18 20 22 22 24 28
1 2 3 5 5 4 2 3 0 5 3 3 5 5 6 5 5 3 3 3 2 4 5 3 1 4 5 2 3 1 3 7 8 7 5 2 2 3 2 1 2 2 2 4 5 6 6 6 7 8 9 11 14 15 16 17 19 19 21 21 21 21 17 15 20 25 26 25 22 21 21 21 21 20 18 15 14 16 18 17 15 15 16 15 18 24
0 0 1 1 1 2 4 4 3 1 3 8 7 7 8 5 3 2 1 1 3 5 3 2 2 3 4 2 4 4 2 3 5 4 1 2 2 2 2 1 1 1 2 2 3 4 5 5 6 6 7 8 11 12 13 14 15 17 18 20 20 19 16 15 20 24 25 24 23 21 20 21 20 19 17 17 19 22 23 21 18 16 19 19 21 24
1 2 1 1 1 1 3 5 6 3 3 5 4 6 7 3 2 2 1 2 5 5 1 2 2 3 5 3 2 2 3 2 4 3 1 4 4 2 2 2 1 1 2 2 2 2 3 3 4 5 6 7 10 11 13 13 14 16 17 18 19 18 15 17 20 24 25 25 24 23 20 20 19 18 17 20 25 26 26 25 23 23 24 25 25 25
2 1 1 2 0 2 2 5 5 2 2 2 5 8 6 4 4 4 3 3 5 2 2 1 1 3 7 6 4 7 7 5 5 5 2 2 2 2 2 1 1 2 2 2 2 2 3 3 4 5 6 8 10 12 14 15 14 14 15 17 19 17 17 19 22 24 24 24 26 25 22 19 18 17 18 23 27 27 27 27 26 26 26 26 26 26
2 0 1 2 2 2 4 5 4 4 5 5 7 8 7 5 5 5 4 1 3 0 2 1 1 3 6 5 7 11 6 2 3 5 3 3 4 4 2 2 3 3 3 2 2 2 3 3 4 5 7 8 10 12 15 15 14 13 14 17 18 17 18 21 23 24 24 23 25 24 21 18 15 17 21 25 27 27 27 27 27 27 26 26 26 26
5 3 2 3 2 2 4 3 1 4 5 3 1 2 5 5 4 5 3 2 2 2 2 1 2 4 3 0 3 7 3 2 4 4 3 5 6 4 4 4 4 4 2 2 2 3 3 3 5 5 7 9 11 13 15 16 16 15 15 17 18 17 18 21 23 24 24 24 23 20 18 16 16 20 25 27 27 27 28 27 27 27 27 26 26 25
4 2 1 1 1 1 2 2 2 3 4 1 1 0 3 3 2 2 1 1 1 1 2 3 3 4 2 5 5 4 3 5 6 3 4 6 5 3 4 4 3 3 2 1 2 2 2 3 5 6 8 11 13 14 16 17 17 18 18 18 19 19 19 20 22 23 22 22 21 17 17 18 18 22 26 27 27 27 27 27 27 27 27 26 26 25
3 1 2 1 0 0 1 1 1 0 2 2 2 3 2 1 3 3 1 1 1 3 3 3 4 4 2 7 6 1 2 4 3 3 5 5 3 2 4 3 2 2 1 1 1 1 1 3 4 7 9 12 14 15 16 16 17 17 18 18 19 19 19 19 19 20 20 21 20 18 20 21 21 22 24 25 26 27 27 27 27 27 27 27 26 26
3 2 2 1 1 1 1 1 1 2 0 2 3 4 2 1 1 1 1 1 1 4 2 2 5 4 1 3 2 0 5 6 4 3 4 3 2 3 4 3 3 2 1 1 1 1 1 2 4 7 9 11 13 13 14 14 15 15 16 16 17 18 19 18 18 18 19 20 21 20 21 22 22 22 22 23 24 25 25 26 26 26 26 27 26 26
3 2 1 1 1 1 1 1 2 1 1 0 1 2 2 2 2 2 2 2 3 4 2 2 3 4 4 4 2 1 5 6 4 3 4 5 5 5 4 4 3 3 2 1 1 1 2 4 6 7 8 9 10 11 12 12 13 14 15 15 16 16 17 17 17 18 18 20 21 21 20 20 21 21 21 21 22 23 23 23 24 23 23 24 25 24
2 2 1 1 1 0 1 2 4 4 1 1 0 1 0 1 2 2 2 1 3 3 2 2 1 3 6 5 3 6 6 5 3 3 4 6 5 5 4 3 3 2 2 2 2 2 2 4 6 8 8 8 9 11 11 12 13 13 14 14 15 16 16 16 17 17 18 19 19 19 20 20 19 19 20 21 22 23 23 22 22 23 24 24 25 25
2 1 2 2 1 1 2 2 3 4 4 3 4 5 3 0 0 1 1 2 1 3 2 3 3 3 2 3 7 10 5 1 2 2 4 5 4 4 3 3 3 2 2 3 3 3 3 3 5 7 9 10 11 11 12 13 13 13 14 15 15 15 16 16 17 17 18 18 18 19 19 18 19 19 20 21 22 23 23 22 22 24 24 25 25 24
2 1 3 4 2 3 2 1 2 2 1 1 3 5 5 4 3 3 3 1 1 1 1 2 4 3 1 2 5 6 2 0 1 3 3 3 4 3 2 3 3 2 3 3 2 3 3 4 5 7 8 10 11 12 14 14 15 15 15 15 16 16 17 16 16 17 17 17 18 18 18 18 18 18 19 20 21 22 23 22 23 23 23 24 21 19
2 3 3 3 2 2 2 1 1 1 2 1 2 1 3 3 3 5 6 3 2 1 1 1 3 4 1 2 3 3 2 2 1 2 3 3 3 2 2 3 3 2 1 1 2 2 3 4 5 7 8 9 10 11 13 14 15 15 15 16 16 17 16 16 15 15 16 17 17 17 17 17 17 16 17 18 20 21 21 21 22 22 21 22 19 18
1 3 4 2 1 1 2 0 1 0 1 2 2 2 3 3 2 2 2 2 4 4 3 2 4 5 1 2 2 3 4 3 3 4 4 3 3 2 3 3 3 2 1 1 2 1 1 2 4 5 7 9 9 10 10 11 12 12 12 13 14 14 14 14 14 15 16 17 17 16 16 16 15 14 15 17 17 18 19 19 20 20 20 20 19 19
4 3 4 4 2 1 1 1 1 1 2 3 2 3 4 3 4 3 1 1 3 5 5 5 6 6 0 1 2 2 2 3 3 3 4 3 3 2 3 3 3 2 1 1 1 1 1 1 0 1 2 5 5 4 4 5 6 8 9 10 11 11 10 11 12 14 15 15 16 15 14 13 13 13 13 15 16 16 16 17 17 18 18 19 19 19
5 4 5 6 5 5 4 5 5 4 3 3 1 2 6 7 7 5 2 3 4 4 5 6 8 6 1 1 2 2 1 3 3 3 3 3 4 3 4 4 3 2 2 2 1 1 2 2 2 2 1 1 1 1 1 1 1 3 5 6 7 8 8 9 10 12 13 14 14 13 12 11 11 12 13 14 15 15 15 15 16 16 17 17 17 17
2 2 5 9 9 9 10 10 9 7 5 6 8 9 12 12 10 5 2 4 6 3 4 8 11 10 4 2 2 3 3 4 3 3 3 4 5 5 4 3 2 2 2 2 2 2 1 2 3 3 3 3 1 0 1 1 1 3 5 7 8 9 10 10 11 12 14 13 13 12 11 10 11 12 12 13 13 13 14 14 14 13 13 14 15 15
2 3 6 10 11 11 11 8 8 9 9 12 14 13 13 12 11 9 7 8 6 4 5 11 12 14 10 6 5 5 5 4 4 5 4 4 5 5 3 2 3 3 3 2 3 3 2 2 3 4 6 7 5 3 3 3 4 5 7 9 10 11 12 12 12 13 13 13 12 10 9 9 10 11 11 11 12 12 11 11 10 10 10 12 13 14
4 6 6 8 12 13 8 4 5 8 9 9 9 10 11 11 13 13 14 12 8 6 11 14 14 15 12 8 9 8 6 5 4 3 2 1 3 3 3 3 4 5 4 5 5 5 5 4 3 4 9 10 9 7 7 7 7 8 10 11 13 14 14 13 13 12 12 12 10 9 9 10 10 10 10 10 10 9 8 8 8 8 9 10 11 11
4 6 5 7 12 12 6 3 4 7 7 5 5 8 11 12 14 17 17 14 11 10 13 17 16 14 11 8 8 5 2 1 0 1 1 4 5 4 4 5 5 6 6 7 7 6 5 5 4 5 9 11 12 11 10 9 9 9 11 12 13 14 14 14 13 12 12 10 9 9 10 10 10 9 9 8 7 6 6 6 7 7 7 8 8 9
3 5 4 4 7 8 3 3 2 4 6 6 4 5 9 10 12 15 15 13 10 10 14 18 16 12 10 7 6 3 3 3 2 3 5 7 5 4 5 7 7 8 8 7 6 5 4 3 3 4 6 8 10 11 10 9 8 8 10 12 12 13 12 12 12 11 10 9 9 10 10 9 8 8 7 6 6 5 5 5 5 6 6 6 7 8
2 2 3 4 5 5 2 3 3 3 2 3 2 5 10 10 10 12 12 13 11 11 16 15 11 11 9 4 5 5 5 6 6 7 6 6 6 7 8 9 10 10 8 6 4 4 4 3 3 4 5 6 8 9 9 8 7 7 9 10 11 11 12 12 11 9 8 8 9 9 9 8 8 7 6 5 5 4 4 4 4 4 5 6 6 7
4 4 3 5 7 6 2 3 5 5 2 2 3 9 13 12 12 12 10 12 12 12 13 10 10 13 7 3 5 7 7 8 8 7 6 6 8 10 11 11 10 8 7 6 5 4 4 4 4 6 7 7 8 10 9 7 7 8 9 10 11 12 12 11 10 9 9 9 9 9 8 8 6 6 5 5 4 4 3 3 3 3 4 5 5 7
6 7 5 5 7 7 4 5 5 5 6 6 7 13 16 16 15 12 11 14 14 11 11 10 12 12 4 5 8 8 9 10 11 11 11 10 8 9 10 10 9 8 6 6 6 6 5 4 4 8 10 9 9 9 9 8 10 10 11 11 12 12 11 11 10 10 9 9 8 7 7 6 6 5 5 4 3 2 1 1 1 2 3 5 5 7
8 7 4 3 4 3 4 5 6 9 10 7 6 10 13 13 14 14 14 16 15 14 15 15 17 13 5 5 8 8 9 11 11 12 14 11 7 6 7 8 9 8 6 6 6 5 4 5 8 10 9 7 6 7 8 9 10 10 10 10 11 11 12 12 11 10 9 8 7 7 6 6 6 5 4 3 2 2 1 1 2 3 4 5 6 7
8 7 3 2 2 3 4 6 8 7 5 2 1 0 3 5 7 10 13 15 17 18 16 15 17 16 10 8 7 4 4 4 4 8 10 7 4 4 6 7 6 6 4 4 5 5 6 9 10 9 8 7 7 7 8 9 9 10 11 11 12 13 14 13 13 11 9 8 7 7 6 5 5 4 3 3 2 2 2 3 4 4 5 7 8 9
4 6 5 4 4 3 4 6 3 4 3 2 4 5 8 9 10 11 11 13 13 14 12 13 16 18 17 10 4 3 1 2 3 8 9 6 5 7 7 4 1 1 1 4 6 7 9 10 10 11 11 10 10 9 10 11 12 14 16 16 16 15 14 13 12 10 8 7 6 5 5 4 4 3 3 3 3 4 4 6 6 7 8 10 11 12
1 3 5 6 4 2 3 4 2 4 7 10 13 12 10 8 8 9 9 10 8 10 13 15 16 19 19 8 5 5 2 1 6 9 7 9 9 7 5 0 3 3 4 6 8 10 11 13 15 14 13 13 13 12 12 14 15 18 19 18 16 15 13 12 10 8 7 6 5 5 4 4 4 4 4 5 6 7 8 9 10 11 12 13 14 16
1 1 1 4 3 3 5 5 5 8 11 13 11 6 5 6 8 7 4 9 11 12 15 15 16 20 17 6 7 6 4 4 9 8 4 7 6 3 3 3 4 5 7 8 10 13 16 18 18 17 16 16 14 13 15 17 18 19 19 17 14 13 12 11 10 9 8 7 6 5 5 5 5 6 7 7 8 9 10 11 12 13 14 15 16 17
3 1 2 5 4 4 6 6 4 5 8 8 4 5 7 10 12 9 5 11 13 11 12 13 16 17 11 7 8 8 8 8 9 4 3 5 5 6 5 5 5 6 9 12 14 17 19 20 19 18 17 16 14 14 17 18 18 18 17 14 13 13 12 11 10 9 8 7 7 7 7 7 8 9 9 10 10 11 11 13 13 14 15 16 17 19
2 2 2 5 7 6 7 6 3 3 6 4 5 7 10 12 10 7 10 8 4 7 10 13 14 12 9 10 9 9 9 6 2 3 4 5 7 8 7 9 10 10 12 14 17 20 22 21 20 19 18 16 15 15 16 17 17 17 15 14 13 13 12 10 9 9 8 8 8 8 9 9 10 10 10 11 11 12 12 13 15 15 16 18 19 20
4 3 2 4 6 4 4 3 3 6 5 4 5 4 8 10 7 8 7 2 3 6 9 11 12 11 10 11 11 9 5 3 5 6 5 6 8 8 7 9 11 12 14 16 18 21 23 22 21 21 19 17 15 15 14 15 16 16 15 14 14 13 11 10 10 10 9 10 10 10 10 10 11 11 11 12 13 14 14 15 16 17 17 18 20 21
7 6 4 5 5 2 1 4 4 8 4 11 12 2 5 7 4 2 2 2 2 5 6 8 10 9 9 11 10 6 5 6 6 7 7 7 8 8 8 9 9 11 12 13 14 17 20 19 18 19 19 18 17 15 13 14 16 16 16 15 14 13 12 12 12 11 11 11 11 11 12 12 13 13 13 14 15 16 17 17 18 18 19 19 20 22
8 8 5 5 5 4 4 7 6 4 4 11 11 5 7 5 1 1 2 3 2 3 4 4 6 6 9 10 9 6 7 7 7 8 9 8 8 8 8 9 10 11 12 13 13 15 18 17 15 16 18 18 18 16 15 14 15 16 16 15 14 14 14 14 13 13 13 13 13 14 14 14 15 15 16 17 18 19 19 19 20 20 20 20 20 22
8 8 4 4 6 5 5 6 4 1 3 4 2 0 2 1 2 1 2 2 1 1 2 2 3 4 5 7 7 7 6 7 8 8 8 9 8 8 9 10 10 11 11 13 13 15 16 15 14 15 16 16 16 17 16 16 16 17 17 15 15 15 15 15 15 15 14 15 15 16 16 17 17 17 18 18 19 20 21 21 22 21 21 21 21 22
2 2 1 2 4 4 4 5 3 0 1 2 3 3 2 4 3 2 2 2 1 0 0 1 2 2 3 6 7 7 6 9 10 8 8 9 8 8 9 10 11 11 11 12 12 13 14 14 14 14 15 15 15 15 16 17 17 17 16 15 15 15 15 15 15 16 15 16 16 17 18 19 19 20 21 21 21 22 22 22 22 23 22 22 22 23
1 2 2 2 4 5 6 6 2 1 3 3 3 2 2 4 4 3 2 2 2 2 2 1 0 2 3 4 7 9 9 10 11 10 8 9 8 8 9 9 10 11 12 12 11 11 11 12 12 12 13 14 14 13 14 16 17 17 16 16 16 16 15 16 16 16 17 18 18 18 19 20 21 22 23 24 24 25 25 24 23 23 22 21 22 22
1 3 3 3 3 3 5 4 1 2 2 1 2 2 1 2 3 4 3 2 3 4 4 4 3 3 4 5 8 11 11 10 10 10 9 7 7 7 8 10 11 11 11 12 11 11 12 12 12 12 13 13 13 13 13 14 16 17 17 17 17 17 17 17 17 17 18 20 20 21 22 22 22 24 25 25 25 26 26 25 24 23 23 22 22 21
2 4 3 2 2 3 6 4 1 2 3 3 3 3 2 1 1 4 4 4 5 6 6 8 7 6 7 7 8 12 13 10 9 10 9 8 7 7 9 10 10 11 11 11 11 12 13 12 12 12 13 13 14 14 13 12 14 18 19 19 19 19 19 19 18 17 19 21 22 23 24 24 24 25 25 26 26 26 26 24 22 23 25 24 21 20
3 5 3 3 4 6 7 4 4 3 3 3 5 6 6 5 5 6 5 5 6 5 6 9 10 9 10 9 7 10 12 10 9 10 9 8 8 8 9 10 10 10 11 10 10 11 12 12 11 12 12 13 15 16 14 11 12 17 19 19 19 19 19 19 18 16 18 20 22 23 24 25 25 25 25 26 27 28 28 27 23 22 24 26 24 21
4 5 5 4 5 5 3 3 4 3 1 2 5 6 5 4 6 7 7 6 6 5 4 7 9 9 9 10 10 9 11 11 10 10 10 9 9 10 10 9 10 10 10 9 9 10 10 11 11 12 12 14 15 15 13 11 12 16 19 19 19 19 19 19 19 18 18 20 21 22 23 24 25 25 26 26 26 26 27 28 27 24 23 23 23 22
Wind_Direction
204 186 197 205 188 177 181 195 93 83 167 176 165 191 183 181 178 140 90 24 329 226 221 227 246 262 260 250 246 219 174 244 254 250 250 241 234 229 220 226 226 230 239 235 236 238 235 235 236 235 233 232 231 230 225 220 217 215 212 212 216 216 213 215 217 217 217 217 218 220 221 221 222 226 230 232 235 237 241 241 237 239 239 235 236 237
206 212 206 199 145 142 151 122 92 99 132 171 185 182 188 216 167 90 86 58 17 245 221 260 267 259 259 262 260 241 231 250 247 244 249 238 229 228 223 228 226 229 238 234 239 238 232 232 231 229 228 226 226 227 226 224 223 219 213 213 215 214 213 214 214 214 217 216 214 215 216 218 219 222 228 235 238 238 238 236 234 238 242 241 239 237
206 220 192 106 102 96 89 96 113 104 119 159 187 182 186 198 136 107 120 79 59 244 246 37 270 262 261 265 264 248 240 247 241 241 251 245 233 226 221 225 224 227 226 216 226 228 224 227 225 224 224 225 225 226 226 225 223 218 214 214 214 213 214 215 214 212 215 217 216 217 218 219 220 223 229 233 235 237 236 235 236 240 243 243 242 241
197 226 101 120 141 129 107 128 137 117 138 167 167 185 189 164 177 206 167 128 52 284 320 345 282 276 263 257 257 244 236 251 250 247 253 252 243 235 231 235 227 229 228 215 223 229 220 218 221 223 223 225 224 222 223 224 220 217 217 216 214 213 214 215 216 215 215 217 218 220 222 222 222 226 231 231 233 235 236 237 238 240 241 243 246 247
176 27 71 140 164 159 147 159 174 181 195 211 206 200 181 168 198 330 121 134 111 198 243 306 283 276 248 240 248 225 182 255 250 247 248 240 236 241 259 259 239 234 238 232 232 231 220 213 218 224 226 226 224 222 224 223 221 220 220 219 216 214 214 214 216 215 213 214 216 217 219 221 221 225 228 230 232 233 235 237 238 238 241 243 245 247
163 39 129 144 170 171 160 174 193 200 199 215 222 212 195 176 165 100 128 147 186 206 179 326 261 261 189 229 245 225 305 249 223 232 245 234 214 220 241 246 236 234 241 244 245 245 236 230 225 228 231 229 227 227 226 225 223 222 221 220 217 213 214 215 214 210 207 211 214 213 212 213 214 218 224 227 229 230 233 237 238 238 239 241 242 246
107 57 152 152 159 161 176 200 192 193 201 208 216 192 152 149 141 136 158 172 215 210 78 327 246 254 257 226 225 15 294 260 238 238 247 237 206 205 226 237 232 231 235 237 246 251 246 240 233 232 233 231 231 230 229 228 226 224 222 220 218 215 216 215 209 206 207 210 213 214 213 213 214 217 223 227 229 230 233 237 238 237 239 241 243 247
115 123 127 136 144 158 188 210 179 184 202 193 155 162 146 146 153 159 170 188 251 103 110 237 258 267 265 242 119 31 287 265 246 239 243 236 214 212 222 229 230 231 232 233 240 242 239 237 234 236 236 233 233 232 231 229 227 223 220 220 217 214 214 212 208 207 210 211 210 213 215 216 219 221 225 229 229 230 231 233 234 235 240 244 245 245
104 159 172 150 156 185 195 204 160 180 200 205 85 144 137 136 146 158 169 168 61 243 204 178 164 251 253 234 115 16 271 257 245 234 235 226 203 214 218 213 228 235 235 238 244 246 243 242 238 240 242 236 232 231 229 225 223 221 217 217 215 211 211 211 211 212 213 212 209 211 214 216 221 224 227 228 225 224 223 226 231 234 238 242 243 243
18 188 185 160 173 184 140 34 58 197 196 141 136 106 92 87 87 121 168 142 128 238 221 158 122 254 252 213 168 179 248 246 241 226 221 212 198 223 229 230 239 241 237 235 245 255 254 251 244 241 240 233 227 224 224 220 218 216 213 212 210 208 207 206 211 214 213 210 209 210 212 214 219 221 223 222 219 223 226 228 228 229 231 232 238 243
277 169 7 127 179 145 106 66 16 341 124 140 145 112 100 95 81 98 96 125 190 231 219 90 17 277 266 230 191 204 234 245 245 238 182 155 191 197 204 247 264 261 264 250 254 258 253 248 240 231 223 214 211 208 207 208 207 206 205 205 204 204 203 203 209 212 211 209 209 211 213 215 218 219 219 219 222 228 231 229 227 230 235 236 240 246
65 98 126 86 81 129 115 82 44 38 136 148 158 136 119 110 132 149 126 189 219 225 128 49 343 250 242 237 188 236 300 286 253 260 174 150 161 168 185 222 259 275 276 275 262 237 221 221 209 198 190 186 189 188 188 192 193 195 196 197 199 199 200 204 207 209 210 210 211 214 216 218 220 221 222 226 228 231 232 232 232 235 240 242 244 247
97 95 82 60 192 220 164 108 70 44 237 216 168 162 156 148 165 188 183 199 228 228 72 33 300 235 245 255 262 272 276 253 233 243 224 163 191 224 209 227 270 270 265 261 247 213 201 200 187 182 177 174 176 176 181 185 183 186 191 192 195 197 200 205 207 209 209 211 215 218 218 221 223 223 227 232 234 235 236 236 238 240 242 244 246 248
158 222 123 132 173 225 202 160 141 178 208 199 174 175 178 159 170 193 176 223 255 224 59 325 262 250 259 261 252 255 264 258 231 242 247 255 266 271 298 306 294 286 259 244 235 220 207 193 185 182 176 175 177 177 180 183 181 184 187 190 194 197 202 205 208 209 209 212 217 219 220 222 223 225 231 236 238 239 241 241 242 245 246 248 250 253
188 207 175 161 146 169 205 220 179 152 167 193 180 183 189 172 185 199 181 209 223 107 85 155 225 229 223 57 255 253 282 314 253 251 266 265 261 274 296 287 279 276 251 225 231 225 206 186 182 181 181 181 181 180 183 183 184 185 186 189 192 195 200 204 207 209 210 214 218 218 221 222 224 232 237 239 240 242 244 246 248 250 251 251 254 257
195 226 43 32 306 173 197 274 341 109 138 183 7 338 211 180 144 143 90 149 122 67 152 180 245 248 264 309 287 253 263 264 252 248 256 257 248 250 273 268 255 258 234 206 235 225 189 178 181 183 186 185 183 184 187 187 187 188 190 192 194 197 201 203 206 210 211 216 218 218 222 225 228 234 237 239 242 245 247 249 251 253 254 256 257 258
184 224 11 1 224 90 297 293 319 130 157 159 164 184 210 64 103 117 115 67 33 257 197 165 251 260 290 286 276 213 253 252 234 231 240 248 245 231 252 250 234 237 225 211 239 232 167 165 181 191 189 186 186 186 188 191 191 192 193 194 196 200 205 207 208 211 214 218 221 223 226 230 232 235 238 242 245 249 251 252 254 255 257 258 257 258
170 130 15 357 125 72 305 231 35 2 72 147 175 171 141 48 60 135 185 123 165 240 212 156 243 258 235 259 287 317 247 233 200 211 242 247 231 223 233 234 229 225 223 258 259 261 273 228 205 199 191 187 187 188 190 193 194 195 196 197 199 202 206 209 211 213 216 220 223 227 230 234 237 239 243 246 248 251 251 252 254 255 256 258 259 261
152 134 43 6 179 59 5 197 148 59 13 329 205 146 120 196 206 184 189 171 185 227 246 193 240 265 216 218 315 287 240 238 212 191 227 232 214 211 219 221 230 224 208 232 233 225 251 244 228 209 195 190 187 187 190 192 195 197 198 201 203 206 210 212 215 216 220 224 226 230 234 237 240 243 246 249 251 252 252 254 257 258 260 263 264 265
121 173 160 94 266 10 1 229 184 164 125 58 145 128 353 263 219 187 161 168 202 210 240 229 227 243 214 200 228 235 233 236 220 196 216 225 214 207 209 207 215 211 180 156 152 189 217 229 227 212 197 191 187 187 188 189 194 197 199 203 204 208 212 214 217 219 222 226 229 233 237 238 241 243 246 249 251 253 256 259 262 263 265 266 267 267
109 213 160 112 312 200 183 223 206 182 162 157 171 174 181 152 28 231 146 67 230 204 212 245 248 242 214 168 207 227 236 194 207 251 240 233 230 216 208 214 212 186 153 142 140 168 199 207 211 201 192 189 187 188 189 191 195 197 199 204 206 209 213 214 217 219 222 226 229 233 236 238 241 243 245 248 250 252 255 256 258 259 261 262 264 265
136 163 150 136 172 196 193 346 315 276 172 162 193 184 181 155 131 192 198 126 351 246 194 237 267 262 170 163 216 229 262 90 223 266 261 259 261 241 227 239 234 186 140 141 154 171 179 182 188 186 182 185 187 190 193 194 197 199 200 203 207 211 215 217 219 221 224 227 230 234 236 237 240 242 245 249 251 253 255 256 258 260 261 261 262 262
107 109 114 123 174 223 300 3 64 301 320 309 274 203 173 163 164 198 210 184 136 147 97 87 280 275 133 157 244 254 282 302 285 268 274 287 281 256 248 248 253 261 161 166 204 185 170 170 168 167 169 176 185 190 194 198 200 203 205 205 208 212 215 218 221 224 227 230 232 234 236 237 239 242 246 249 253 256 259 261 262 262 262 262 262 262
108 113 114 105 81 1 317 219 119 64 278 254 255 206 186 190 183 192 211 172 148 163 163 165 248 261 124 120 252 266 277 283 269 244 243 280 297 242 232 239 230 244 249 244 250 206 188 193 166 160 162 168 178 184 190 199 204 207 211 211 215 218 218 219 222 224 227 230 233 235 236 238 240 242 246 250 254 259 261 263 264 265 265 266 266 265
181 158 134 121 116 149 196 179 171 186 211 226 221 183 187 154 96 90 98 143 192 201 190 205 247 255 47 58 245 244 268 264 258 237 215 239 267 208 201 224 220 227 260 261 270 308 308 286 270 162 158 158 165 174 187 203 210 216 221 222 225 228 225 223 224 226 229 231 235 236 238 242 245 248 253 256 259 263 265 267 266 266 267 267 267 267
185 174 160 163 168 181 190 193 197 189 181 217 212 155 188 178 159 164 152 171 213 207 175 205 243 250 69 47 245 219 222 245 235 219 214 230 240 213 193 201 201 218 254 257 276 321 346 334 316 303 267 189 112 69 93 134 217 235 244 246 248 250 247 242 235 232 233 234 238 241 244 248 252 254 256 258 261 263 264 263 261 262 264 265 267 267
168 180 188 199 200 198 205 207 196 171 155 188 199 192 195 194 183 169 127 192 203 166 172 217 237 247 234 159 223 246 211 225 232 215 224 229 225 218 197 194 209 240 259 279 300 305 312 302 293 284 255 228 220 46 107 120 224 246 257 260 261 265 264 258 248 239 236 236 239 244 249 251 251 250 251 253 254 255 255 256 257 259 261 263 264 265
114 216 202 208 221 219 216 210 179 171 186 201 203 197 191 187 179 178 200 211 177 131 223 230 229 246 243 176 180 232 216 215 235 222 217 210 204 203 185 194 241 246 246 258 254 247 248 261 284 277 248 225 211 216 214 217 237 246 254 257 257 261 264 264 256 244 236 234 237 244 248 247 245 243 244 245 246 249 252 255 258 260 259 261 263 264
146 216 207 198 223 230 219 183 160 180 199 207 201 189 180 177 177 191 212 212 171 171 232 235 221 232 241 199 189 212 212 211 225 215 215 216 199 199 196 210 231 233 228 229 226 217 207 211 223 236 234 224 215 218 223 226 235 244 250 253 254 256 258 258 254 244 233 229 230 234 236 236 236 235 236 239 241 245 249 251 254 254 254 257 261 265
171 201 198 191 221 232 210 144 171 185 183 191 194 178 173 177 185 199 213 213 202 209 234 241 235 235 243 226 205 202 181 185 240 57 189 216 208 200 209 221 231 232 228 222 214 200 196 199 193 208 224 226 223 224 225 227 232 237 241 244 247 249 249 247 243 232 224 219 215 218 222 224 227 227 227 230 232 233 237 240 246 252 258 263 267 272
217 189 154 157 220 236 188 126 184 188 178 185 179 161 168 179 194 209 220 219 216 230 241 247 253 257 255 235 202 163 114 122 188 219 214 212 202 196 213 225 229 229 226 221 203 181 188 204 191 201 216 222 226 227 225 226 226 224 226 229 232 236 236 233 226 216 207 200 200 207 210 211 211 211 211 213 214 219 226 234 246 256 264 269 271 272
221 180 102 124 211 238 194 167 163 91 109 167 140 162 175 180 194 207 216 213 205 219 237 245 255 258 254 217 167 170 161 173 204 213 213 213 202 201 214 222 226 227 224 224 212 183 193 212 208 216 215 209 218 224 221 218 214 210 212 213 217 221 220 216 208 195 183 182 189 195 195 195 194 194 196 199 202 211 221 232 246 257 264 268 269 270
172 166 139 158 202 225 206 162 147 116 126 213 195 188 184 190 205 207 213 220 209 209 225 230 235 241 236 143 173 195 183 194 214 211 208 213 203 204 216 223 230 232 223 216 211 199 205 211 213 230 233 225 221 223 216 200 192 196 194 187 190 195 195 190 180 169 168 175 182 183 181 180 178 179 185 188 194 202 210 228 246 258 273 279 280 281
171 183 181 170 201 214 165 120 134 172 213 221 203 192 187 191 200 199 211 220 209 208 222 228 236 239 210 158 199 200 189 202 212 211 215 218 207 202 211 223 233 240 228 206 199 206 205 193 203 224 229 224 215 209 194 173 171 176 172 166 165 164 162 157 152 153 160 165 167 168 166 165 164 171 178 177 176 182 186 251 303 309 301 302 302 301
176 191 190 174 201 196 127 134 181 217 227 222 212 202 194 194 194 199 219 222 207 208 221 232 243 244 213 194 210 202 205 214 215 221 226 226 221 206 206 218 226 230 223 196 188 199 185 175 198 206 199 185 171 158 147 147 155 157 152 149 143 136 133 133 134 136 140 143 145 147 149 152 156 159 158 149 133 102 67 11 355 340 317 311 311 308
180 181 161 172 173 118 134 180 204 233 238 212 337 65 166 185 193 204 231 234 216 209 213 226 241 244 229 217 208 197 224 243 252 251 243 232 226 214 215 224 223 219 218 179 166 181 181 182 186 172 142 121 117 120 125 134 142 139 132 128 125 123 122 123 122 121 124 127 129 133 137 137 138 133 120 106 82 49 21 358 347 334 321 316 313 311
193 179 166 193 193 155 181 190 205 303 301 191 202 195 179 184 185 191 223 240 221 203 207 222 236 241 237 225 172 115 54 5 295 260 240 217 212 217 223 237 224 171 131 113 136 157 162 155 136 117 110 110 112 118 125 131 134 130 123 119 118 118 118 116 110 106 107 111 111 115 114 108 102 91 73 53 27 10 359 349 343 335 328 323 319 317
259 198 188 203 200 153 173 183 195 243 241 226 219 208 192 187 178 178 215 252 230 188 196 216 228 237 239 221 122 119 131 243 262 253 218 193 200 209 211 101 58 89 108 127 142 134 121 113 106 106 112 111 106 111 122 128 130 125 118 113 113 112 107 98 87 79 78 78 79 82 77 69 57 38 27 16 4 355 349 343 339 333 327 322 318 314
77 21 211 210 195 156 181 201 199 209 233 239 223 189 145 137 125 123 186 256 244 206 195 204 221 234 236 199 132 148 155 210 248 249 181 163 175 167 139 105 83 91 102 119 126 113 107 107 106 108 109 102 97 106 122 128 128 122 112 106 104 98 85 72 61 55 55 55 56 56 47 36 25 14 6 0 354 347 341 335 331 327 322 318 314 312
148 168 197 205 205 188 196 215 215 221 245 242 185 132 136 135 121 121 198 248 246 215 192 200 220 232 223 163 149 175 189 218 243 254 107 119 97 75 84 95 91 89 90 98 106 108 108 108 104 100 94 89 92 107 122 128 124 113 103 97 92 79 63 51 45 42 45 44 41 36 26 17 11 3 356 349 344 338 334 330 325 322 319 316 313 311
165 183 198 213 214 201 202 220 252 260 245 216 153 151 149 134 130 177 218 240 228 173 179 201 218 223 195 165 176 200 208 218 217 99 101 101 87 77 74 80 85 85 86 95 105 109 106 101 97 90 83 84 96 109 119 122 114 102 93 86 74 57 44 38 36 36 35 32 27 21 13 6 360 355 349 341 334 330 328 325 322 321 318 315 313 311
176 175 190 219 214 202 206 219 274 275 239 150 117 149 154 151 180 213 216 218 120 152 181 201 210 209 192 186 198 204 191 123 99 107 103 92 96 99 92 89 89 87 88 96 104 106 103 95 88 84 79 81 93 102 109 112 102 90 81 70 54 38 31 30 29 27 25 21 15 8 3 357 351 347 342 337 331 326 324 323 322 320 319 317 315 313
179 175 187 202 192 160 165 185 228 267 227 123 112 133 213 196 202 209 199 210 172 164 183 203 208 201 192 198 204 184 127 111 115 114 104 96 98 99 93 89 87 84 86 88 92 98 99 90 81 78 75 77 84 89 96 99 91 80 69 54 37 27 24 24 22 19 16 11 6 0 355 350 347 343 339 336 332 328 326 324 322 321 321 319 317 315
177 177 187 202 191 172 187 199 209 240 171 137 137 182 219 206 132 66 218 223 199 167 183 207 213 203 197 198 187 147 125 129 129 121 114 106 99 94 88 81 79 79 79 79 84 92 93 87 81 78 73 72 75 77 78 81 79 71 59 41 25 21 20 17 14 11 7 4 0 356 351 348 346 344 340 337 333 330 328 327 324 323 321 320 319 316
192 188 190 204 200 190 203 220 221 188 162 158 130 290 253 282 29 36 247 259 257 201 191 202 210 207 204 187 155 136 138 139 132 127 120 109 99 94 89 80 75 74 74 75 80 87 87 85 84 82 74 67 66 67 67 67 66 61 47 31 21 19 15 10 7 4 0 358 356 352 347 344 343 341 340 339 336 333 331 330 327 324 322 320 319 315
218 194 177 192 195 201 236 238 229 302 318 0 34 33 329 328 355 3 305 298 290 263 243 236 217 187 182 164 141 135 141 133 124 114 107 105 100 91 87 82 72 68 69 68 70 77 83 84 83 80 73 64 59 60 59 56 54 50 38 24 20 18 11 8 6 2 359 356 353 350 347 344 342 340 339 339 337 335 334 331 327 324 320 318 317 313
288 185 172 182 173 185 224 235 223 342 329 344 0 12 15 4 0 356 346 346 358 2 346 321 116 120 140 145 132 126 126 124 119 113 106 103 98 90 86 81 71 64 62 61 64 73 79 79 76 72 68 61 52 51 52 47 42 39 30 20 16 13 8 8 7 3 0 358 354 351 349 348 345 343 341 339 337 334 331 328 326 321 315 312 312 310
201 166 173 204 193 197 233 247 291 302 272 301 332 330 12 9 6 21 33 42 47 42 33 29 43 84 99 107 116 116 113 111 112 113 108 98 92 89 82 78 76 71 64 60 64 71 72 73 74 71 67 59 48 47 51 42 31 27 22 16 13 9 6 6 6 3 1 359 356 354 352 350 347 343 340 336 333 330 327 325 323 317 310 308 309 306
126 161 167 158 168 247 260 243 212 251 235 199 190 187 173 179 82 70 65 65 70 70 62 50 38 45 75 95 108 109 107 102 100 103 101 95 91 89 83 81 79 72 67 63 62 65 66 67 71 72 65 55 48 49 51 40 24 18 16 14 12 9 7 7 6 5 3 1 358 356 353 350 348 344 340 336 332 330 326 322 319 315 312 311 310 307
166 182 163 134 178 230 244 209 169 210 240 206 187 175 159 153 140 117 97 82 75 73 85 85 69 51 52 60 73 97 105 102 96 98 96 88 87 87 87 88 83 74 71 68 63 64 65 65 70 73 62 47 43 45 47 41 22 13 12 12 11 10 11 11 9 6 4 2 0 357 354 352 350 346 343 340 336 332 328 323 319 318 315 315 315 313
196 187 173 180 202 231 245 181 172 218 278 116 144 150 144 141 134 121 109 101 92 77 82 97 95 85 71 52 46 73 98 104 102 100 95 90 90 89 86 85 82 75 68 61 59 61 60 63 72 72 55 41 38 40 43 38 20 11 10 10 10 10 10 10 9 6 2 0 359 358 357 354 352 349 345 341 337 333 328 324 322 320 317 317 317 315